COSMOS 1691 DEB, 16266

Orbit data source: Space-Track

COSMOS 1691 DEB, 16266 is space debris in LEO originally from a launch on Wed, 09 Oct 1985 UTC launched from the Plesetsk Missile And Space Complex (PKMTR). Debris objects in space refer to the collection of defunct objects orbiting the Earth. Examples of debris include non-operational satellites, rocket bodies, and fragments generated from explosions, collisions, or faulty payload assembly.

Loading next visibility...
COSMOS 1691 DEB details
Identifier
16266, 1985-094K
Orbit
LEO
Last TLE update11 hours ago
Origin
Flag of CISRVSN (CIS)
ManufacturerUnknown
MissionSpacecraft
Bus & MotorUnknown
MassUnknown
Launch date (UTC)
1985-10-09 (39 years ago)
Launch vehicleUnknown
Launch site
Plesetsk Missile And Space Complex (PKMTR)
Object type
Payload
Rocket body
Debris
Shape & HBRUnknown
Radar Cross SectionSmall (<0.1 m²)

Expand to show TLE details & history

TLE from 11 hours ago
0 COSMOS 1691 DEB
1 16266U 85094K   24361.42775487  .00000442  00000-0  22824-2 0  9997
2 16266  82.6011 231.1204 0004139 122.6180  51.2967 12.66462802809409
Epoch: 2024-12-26T10:15Z
Definitive object data (Epoch: 2024-12-26T10:15:58.02Z)
Latitude5.92321°
Longitude160.95322°
Altitude1,396.536 km
Speed7.163 km/s
True Right ascension03h 21m 24s
True Declination5° 53' 27"
Sunlit
Object was in full shadow at TLE epoch
Visualization TLE readout
Latitude24.86204°
Longitude157.98758°
Altitude1,396.561 km
Speed7.165 km/s
Apparent Right ascension05h 23m 58s
Apparent Declination-5° 17' 37"
Sunlit
Object is in full shadow
Visualization observer readout
Local Sidereal Time20:55:31
Azimuth68.377° E
Elevation-31.333°
Doppler factor1
Orbital elements
Apogee altitude1,396.913 km
Perigee altitude1,390.48 km
Semi-major axis7,771.833 km
Eccentricity0.0004139
Inclination82.6011°
RAAN231.1204°
Arg. of periapsis122.618°
True anomaly51.33373°
Mean anomaly51.2967°
Eccentric anomaly51.31521°
Mean motion3.1678 °/min
BSTAR0.0022824
Orbital period113.64 mins
Loading maneuver chart data...
Loading historical data...
Loading historical data...
Loading historical data...
Loading historical data...
Loading historical data...
Loading historical data...
Loading historical data...

COSMOS 1691 DEB Visibility forecast

Observer location: undefined°, undefined

Span
Click to sort rows by Start time (UTC) header in descending order
Start Az.
Max El. time (UTC)
Max El. Az.
Max El.
End time (UTC)
End Az.
4 mins2024-12-27 01:10:31.199Z44.737° NE2024-12-27 01:12:31.199Z59.347° ENE11.08°2024-12-27 01:14:31.199Z73.837° E
14 mins2024-12-27 03:02:31.199Z1.636° NNE2024-12-27 03:08:31.199Z70.597° E42.104°2024-12-27 03:16:31.199Z160.446° S
11 mins2024-12-27 04:57:31.199Z322.271° NNW2024-12-27 05:02:31.199Z279.563° WNW22.665°2024-12-27 05:08:31.199Z230.062° WSW
14 mins2024-12-27 15:47:31.199Z167.424° S2024-12-27 15:53:31.199Z102.026° ESE41.738°2024-12-27 16:01:31.199Z14.363° NNE
12 mins2024-12-27 17:43:31.199Z243.35° WSW2024-12-27 17:48:31.199Z286.256° WNW23.793°2024-12-27 17:55:31.199Z345.24° N
|